Location: Dal�� Lhota
(48.7500°N, 14.0167°E)
Time: 09:26:10
(UTC+00:00)

Explorer 7 - Pass Details

Date: 06 August 2021
Orbit: 484 x 676 km, 50.3° (Epoch: 21 September)

Event Time Altitude Azimuth Distance (km) Brightness Sun altitude
Rises 07:17:48 0° 288° (WNW) 2,622 9.8 33.3°
Reaches altitude 10° 07:19:59 10° 283° (WNW) 1,759 9.0 33.7°
Maximum altitude 07:23:52 51° 207° (SSW) 689 7.6 34.3°
Drops below altitude 10° 07:27:58 10° 132° (SE) 1,861 10.6 35.0°
Sets 07:30:20 0° 127° (SE) 2,792 11.3 35.3°
